Weather in Munda

Solomon Islands     8°19′18″S   157°16′30″E
temp.,
°C
wind,
m/s
gust,
m/s
humid.,
%
clouds,
%
prec.,
mm/h
press.,
hPa
HPBL,
m
17 june, thu
thu1723:00+26ne228368 0.3 1013135
02:00+26ene228430 0.0 1012129
05:00+25e228469 0.0 1011140
08:00+26e238163 0.0 1013220
11:00+29ese13667 0.0 1012904
14:00+30ssw226526 0.1 1010880
17:00+29s227216 0.3 1009613
20:00+27ese23804 0.3 1011196
18 june, fri
fri1823:00+26e22835 0.3 1012125
02:00+25ene11840 0.0 1010111
05:00+25ese22840 0.0 1010151
08:00+26ese11790 0.0 1012167
11:00+29s23686 0.0 1011868
14:00+30s346419 0.1 10091027
17:00+28se347278 0.4 1009818
20:00+27sse2480100 0.3 1010356
19 june, sat
sat1923:00+27se358191 0.4 1011397
02:00+27sse357888 0.1 1009477
05:00+27sse3580100 0.4 1009380
08:00+26se4685100 4.1 1011286
11:00+28e237697 7.8 1011445
14:00+28sse117168 2.5 1009472
17:00+27sse1179100 7.4 100993
20:00+26ene228496 3.0 101156
20 june, sun
sun2023:00+25ene22838 3.5 1012157
02:00+25ene228578 0.0 1010143
05:00+25ene118535 0.3 1010120
08:00+26ene228235 3.7 1012143
11:00+28ne117554 5.1 1012526
14:00+27ese1179100 2.4 1010286
17:00+27e2280100 5.8 1010255
20:00+25ene2284100 1.4 101277
21 june, mon
mon2123:00+25ne228415 2.4 1013187
02:00+25ne2283100 0.0 1012195
05:00+25ne2382100 0.0 1012214
08:00+25ene2282100 0.0 1014201
11:00+29ene236745 0.0 1013786
14:00+30ne125749 0.0 10111083
17:00+29ene2365100 0.0 1010556
20:00+26ne2376100 0.0 1012188